Tracking 19854 objects as of 23-Sep-2019
HD Live streaming from Space Station
objects crossing your sky now

FENGYUN 1C DEB

Track FENGYUN 1C DEB now!
10-day predictions


NORAD ID: 35235
Int'l Code: 1999-025DQT
Perigee: 502.7 km
Apogee: 545.3 km
Inclination: 99.5 °
Period: 95.0 minutes
Semi major axis: 6895 km
RCS: 0.0016 m2 (small)
Launch date: May 10, 1999
Source: People's Republic of China (PRC)
Launch site: Taiyaun Space Center, China (TSC)

Note: This is SATELLITE DEBRIS
aabbcc
Your satellite tracking list
Your tracking list is empty




NASA's NSSDC Master Catalog

Two Line Element Set (TLE):
1 35235U 99025DQT 19264.95580953  .00005868  00000-0  30389-3 0  9992
2 35235  99.4537 309.9328 0030893 285.7507  74.0313 15.16355659625757
Source of the keplerian elements: AFSPC